owner,sensor,date,latitude,longitude,vertical_datum,sea_water_practical_salinity,qcFlag 
DISL,ioos:station:DISL:MHPA:1,2018-01-01T00:00:00Z,30.6671,-87.9365,0.6,0.6,11111222 
DISL,ioos:station:DISL:MHPA:1,2018-01-01T00:30:00Z,30.6671,-87.9365,0.63,0.72,1111122 
DISL,ioos:station:DISL:MHPA:1,2018-01-01T01:00:00Z,30.6671,-87.9365,0.6,0.7,11111222 
DISL,ioos:station:DISL:MHPA:1,2018-01-01T01:30:00Z,30.6671,-87.9365,0.706,0.7,1111122 
DISL,ioos:station:DISL:MHPA:1,2018-01-01T02:00:00Z,30.6671,-87.9365,0.8,0.7,11111222 
DISL,ioos:station:DISL:MHPA:1,2018-01-01T02:30:00Z,30.6671,-87.9365,0.838,0.82,1111122 
DISL,ioos:station:DISL:MHPA:1,2018-01-01T03:00:00Z,30.6671,-87.9365,0.9,0.7,11111222 
DISL,ioos:station:DISL:MHPA:1,2018-01-01T03:30:00Z,30.6671,-87.9365,0.882,0.67,1111122 
DISL,ioos:station:DISL:MHPA:1,2018-01-01T04:00:00Z,30.6671,-87.9365,1.0,0.6,11111222 
DISL,ioos:station:DISL:MHPA:1,2018-01-01T04:30:00Z,30.6671,-87.9365,0.96,0.71,1111122 
DISL,ioos:station:DISL:MHPA:1,2018-01-01T05:00:00Z,30.6671,-87.9365,0.965,0.65,1111122 
DISL,ioos:station:DISL:MHPA:1,2018-01-01T05:30:00Z,30.6671,-87.9365,1.0,0.6,11111222 
DISL,ioos:station:DISL:MHPA:1,2018-01-01T06:30:00Z,30.6671,-87.9365,0.968,0.67,1111122 
DISL,ioos:station:DISL:MHPA:1,2018-01-01T07:00:00Z,30.6671,-87.9365,0.9,0.7,11111222 
DISL,ioos:station:DISL:MHPA:1,2018-01-01T07:30:00Z,30.6671,-87.9365,0.873,0.66,1111122 
DISL,ioos:station:DISL:MHPA:1,2018-01-01T08:00:00Z,30.6671,-87.9365,0.9,0.6,11111222 
DISL,ioos:station:DISL:MHPA:1,2018-01-01T08:30:00Z,30.6671,-87.9365,0.82,0.64,1111122 
DISL,ioos:station:DISL:MHPA:1,2018-01-01T09:00:00Z,30.6671,-87.9365,0.8,0.6,11111222 
DISL,ioos:station:DISL:MHPA:1,2018-01-01T09:30:00Z,30.6671,-87.9365,0.765,0.7,1111122 
DISL,ioos:station:DISL:MHPA:1,2018-01-01T10:00:00Z,30.6671,-87.9365,0.8,0.7,11111222 
DISL,ioos:station:DISL:MHPA:1,2018-01-01T10:30:00Z,30.6671,-87.9365,0.737,0.72,1111122 
DISL,ioos:station:DISL:MHPA:1,2018-01-01T11:00:00Z,30.6671,-87.9365,0.7,0.8,11111222 
DISL,ioos:station:DISL:MHPA:1,2018-01-01T11:30:00Z,30.6671,-87.9365,0.725,0.75,1111122 
DISL,ioos:station:DISL:MHPA:1,2018-01-01T12:00:00Z,30.6671,-87.9365,0.7,0.8,11111222 
DISL,ioos:station:DISL:MHPA:1,2018-01-01T12:30:00Z,30.6671,-87.9365,0.722,0.8,1111122 
DISL,ioos:station:DISL:MHPA:1,2018-01-01T13:00:00Z,30.6671,-87.9365,0.7,0.8,11111222 
DISL,ioos:station:DISL:MHPA:1,2018-01-01T13:30:00Z,30.6671,-87.9365,0.721,0.81,1111122 
DISL,ioos:station:DISL:MHPA:1,2018-01-01T14:00:00Z,30.6671,-87.9365,0.7,0.9,11111222 
DISL,ioos:station:DISL:MHPA:1,2018-01-01T14:30:00Z,30.6671,-87.9365,0.715,0.92,1111122 
DISL,ioos:station:DISL:MHPA:1,2018-01-01T15:00:00Z,30.6671,-87.9365,0.7,0.9,11111222 
DISL,ioos:station:DISL:MHPA:1,2018-01-01T15:30:00Z,30.6671,-87.9365,0.722,0.9,1111122 
DISL,ioos:station:DISL:MHPA:1,2018-01-01T16:00:00Z,30.6671,-87.9365,0.7,0.9,11111222 
DISL,ioos:station:DISL:MHPA:1,2018-01-01T16:30:00Z,30.6671,-87.9365,0.718,0.98,1111122 
DISL,ioos:station:DISL:MHPA:1,2018-01-01T17:00:00Z,30.6671,-87.9365,0.7,1.0,11111222 
DISL,ioos:station:DISL:MHPA:1,2018-01-01T17:30:00Z,30.6671,-87.9365,0.704,0.99,1111122 
DISL,ioos:station:DISL:MHPA:1,2018-01-01T18:00:00Z,30.6671,-87.9365,0.7,1.0,11111222 
DISL,ioos:station:DISL:MHPA:1,2018-01-01T18:30:00Z,30.6671,-87.9365,0.691,0.98,1111122 
DISL,ioos:station:DISL:MHPA:1,2018-01-01T19:00:00Z,30.6671,-87.9365,0.7,1.0,11111222 
DISL,ioos:station:DISL:MHPA:1,2018-01-01T19:30:00Z,30.6671,-87.9365,0.675,1.03,1111122 
DISL,ioos:station:DISL:MHPA:1,2018-01-01T20:00:00Z,30.6671,-87.9365,0.7,1.1,11111222 
DISL,ioos:station:DISL:MHPA:1,2018-01-01T20:30:00Z,30.6671,-87.9365,0.661,1.08,1111122 
DISL,ioos:station:DISL:MHPA:1,2018-01-01T21:00:00Z,30.6671,-87.9365,0.7,1.1,11111222 
DISL,ioos:station:DISL:MHPA:1,2018-01-01T21:30:00Z,30.6671,-87.9365,0.666,1.1,1111122 
DISL,ioos:station:DISL:MHPA:1,2018-01-01T22:00:00Z,30.6671,-87.9365,0.7,1.1,11111222 
DISL,ioos:station:DISL:MHPA:1,2018-01-01T22:30:00Z,30.6671,-87.9365,0.67,1.16,1111122 
DISL,ioos:station:DISL:MHPA:1,2018-01-01T23:00:00Z,30.6671,-87.9365,0.7,1.1,11111222 
DISL,ioos:station:DISL:MHPA:1,2018-01-01T23:30:00Z,30.6671,-87.9365,0.684,1.15,1111122 
DISL,ioos:station:DISL:MHPA:1,2018-01-02T00:00:00Z,30.6671,-87.9365,0.7,1.2,11111222 
DISL,ioos:station:DISL:MHPA:1,2018-01-02T00:30:00Z,30.6671,-87.9365,0.692,1.16,1111122 
DISL,ioos:station:DISL:MHPA:1,2018-01-02T01:00:00Z,30.6671,-87.9365,0.7,1.2,11111222 
DISL,ioos:station:DISL:MHPA:1,2018-01-02T01:30:00Z,30.6671,-87.9365,0.722,1.17,1111122 
DISL,ioos:station:DISL:MHPA:1,2018-01-02T02:00:00Z,30.6671,-87.9365,0.8,1.2,11111222 
DISL,ioos:station:DISL:MHPA:1,2018-01-02T02:30:00Z,30.6671,-87.9365,0.824,1.19,1111122 
DISL,ioos:station:DISL:MHPA:1,2018-01-02T03:00:00Z,30.6671,-87.9365,0.9,1.2,11111222 
DISL,ioos:station:DISL:MHPA:1,2018-01-02T03:30:00Z,30.6671,-87.9365,0.914,1.21,1111122 
DISL,ioos:station:DISL:MHPA:1,2018-01-02T04:00:00Z,30.6671,-87.9365,0.9,1.2,11111222 
DISL,ioos:station:DISL:MHPA:1,2018-01-02T04:30:00Z,30.6671,-87.9365,0.981,1.14,1111122 
DISL,ioos:station:DISL:MHPA:1,2018-01-02T05:00:00Z,30.6671,-87.9365,1.0,1.1,11111222 
DISL,ioos:station:DISL:MHPA:1,2018-01-02T05:30:00Z,30.6671,-87.9365,1.008,1.14,1111122 
DISL,ioos:station:DISL:MHPA:1,2018-01-02T06:00:00Z,30.6671,-87.9365,1.0,1.2,11111222 
DISL,ioos:station:DISL:MHPA:1,2018-01-02T06:30:00Z,30.6671,-87.9365,1.016,1.17,1111122 
DISL,ioos:station:DISL:MHPA:1,2018-01-02T07:00:00Z,30.6671,-87.9365,1.0,1.1,11111222 
DISL,ioos:station:DISL:MHPA:1,2018-01-02T07:30:00Z,30.6671,-87.9365,0.995,1.07,1111122 
DISL,ioos:station:DISL:MHPA:1,2018-01-02T08:00:00Z,30.6671,-87.9365,1.0,1.1,11111222 
DISL,ioos:station:DISL:MHPA:1,2018-01-02T08:30:00Z,30.6671,-87.9365,0.952,1.08,1111122 
DISL,ioos:station:DISL:MHPA:1,2018-01-02T09:00:00Z,30.6671,-87.9365,0.9,1.1,11111222 
DISL,ioos:station:DISL:MHPA:1,2018-01-02T09:30:00Z,30.6671,-87.9365,0.922,1.09,1111122 
DISL,ioos:station:DISL:MHPA:1,2018-01-02T10:00:00Z,30.6671,-87.9365,0.9,1.1,11111222 
DISL,ioos:station:DISL:MHPA:1,2018-01-02T10:30:00Z,30.6671,-87.9365,0.916,1.1,1111122 
DISL,ioos:station:DISL:MHPA:1,2018-01-02T11:00:00Z,30.6671,-87.9365,0.9,1.1,11111222 
DISL,ioos:station:DISL:MHPA:1,2018-01-02T11:30:00Z,30.6671,-87.9365,0.899,1.09,1111122 
DISL,ioos:station:DISL:MHPA:1,2018-01-02T12:00:00Z,30.6671,-87.9365,0.9,99.0,11144222 
DISL,ioos:station:DISL:MHPA:1,2018-01-02T12:30:00Z,30.6671,-87.9365,0.891,1.04,1111122 
DISL,ioos:station:DISL:MHPA:1,2018-01-02T13:00:00Z,30.6671,-87.9365,0.9,99.0,11144222 
DISL,ioos:station:DISL:MHPA:1,2018-01-02T13:30:00Z,30.6671,-87.9365,0.878,1.04,1111122 
DISL,ioos:station:DISL:MHPA:1,2018-01-02T14:00:00Z,30.6671,-87.9365,0.9,99.0,11144222 
DISL,ioos:station:DISL:MHPA:1,2018-01-02T14:30:00Z,30.6671,-87.9365,0.864,1.08,1111122 
DISL,ioos:station:DISL:MHPA:1,2018-01-02T15:00:00Z,30.6671,-87.9365,0.9,99.0,11144222 
DISL,ioos:station:DISL:MHPA:1,2018-01-02T15:30:00Z,30.6671,-87.9365,0.847,1.08,1111122 
DISL,ioos:station:DISL:MHPA:1,2018-01-02T16:00:00Z,30.6671,-87.9365,0.8,99.0,11144222 
DISL,ioos:station:DISL:MHPA:1,2018-01-02T16:30:00Z,30.6671,-87.9365,0.83,1.08,1111122 
DISL,ioos:station:DISL:MHPA:1,2018-01-02T17:00:00Z,30.6671,-87.9365,0.8,99.0,11144222 
DISL,ioos:station:DISL:MHPA:1,2018-01-02T17:30:00Z,30.6671,-87.9365,0.8,1.1,11111222 
DISL,ioos:station:DISL:MHPA:1,2018-01-02T18:00:00Z,30.6671,-87.9365,0.8,1.1,11111222 
DISL,ioos:station:DISL:MHPA:1,2018-01-02T18:30:00Z,30.6671,-87.9365,0.8,1.1,11111222 
DISL,ioos:station:DISL:MHPA:1,2018-01-02T19:00:00Z,30.6671,-87.9365,0.8,1.1,11111222 
DISL,ioos:station:DISL:MHPA:1,2018-01-02T19:30:00Z,30.6671,-87.9365,0.767,1.12,1111122 
DISL,ioos:station:DISL:MHPA:1,2018-01-02T20:00:00Z,30.6671,-87.9365,0.8,1.1,11111222 
DISL,ioos:station:DISL:MHPA:1,2018-01-02T20:30:00Z,30.6671,-87.9365,0.767,1.04,1111122 
DISL,ioos:station:DISL:MHPA:1,2018-01-02T21:00:00Z,30.6671,-87.9365,0.8,99.0,11144222 
DISL,ioos:station:DISL:MHPA:1,2018-01-02T21:30:00Z,30.6671,-87.9365,0.793,0.98,1111122 
DISL,ioos:station:DISL:MHPA:1,2018-01-02T22:00:00Z,30.6671,-87.9365,0.8,99.0,11144222 
DISL,ioos:station:DISL:MHPA:1,2018-01-02T22:30:00Z,30.6671,-87.9365,0.915,0.98,1111122 
DISL,ioos:station:DISL:MHPA:1,2018-01-02T23:00:00Z,30.6671,-87.9365,1.0,99.0,11144222 
DISL,ioos:station:DISL:MHPA:1,2018-01-02T23:30:00Z,30.6671,-87.9365,1.005,0.93,1111122 
DISL,ioos:station:DISL:MHPA:1,2018-01-03T00:00:00Z,30.6671,-87.9365,1.1,99.0,11144222 
DISL,ioos:station:DISL:MHPA:1,2018-01-03T00:30:00Z,30.6671,-87.9365,1.093,0.91,1111122 
DISL,ioos:station:DISL:MHPA:1,2018-01-03T01:00:00Z,30.6671,-87.9365,1.1,99.0,11144222 
DISL,ioos:station:DISL:MHPA:1,2018-01-03T01:30:00Z,30.6671,-87.9365,1.207,0.94,1111122 
DISL,ioos:station:DISL:MHPA:1,2018-01-03T02:00:00Z,30.6671,-87.9365,1.3,99.0,11144222 
DISL,ioos:station:DISL:MHPA:1,2018-01-03T02:30:00Z,30.6671,-87.9365,1.28,0.92,1111122 
DISL,ioos:station:DISL:MHPA:1,2018-01-03T03:00:00Z,30.6671,-87.9365,1.3,1.0,11111222 
DISL,ioos:station:DISL:MHPA:1,2018-01-03T03:30:00Z,30.6671,-87.9365,1.339,1.01,1111122 
DISL,ioos:station:DISL:MHPA:1,2018-01-03T04:00:00Z,30.6671,-87.9365,1.4,99.0,11144222 
DISL,ioos:station:DISL:MHPA:1,2018-01-03T04:30:00Z,30.6671,-87.9365,1.401,0.92,1111122 
DISL,ioos:station:DISL:MHPA:1,2018-01-03T05:00:00Z,30.6671,-87.9365,1.4,99.0,11144222 
DISL,ioos:station:DISL:MHPA:1,2018-01-03T05:30:00Z,30.6671,-87.9365,1.427,0.92,1111122 
DISL,ioos:station:DISL:MHPA:1,2018-01-03T06:00:00Z,30.6671,-87.9365,1.4,99.0,11144222 
DISL,ioos:station:DISL:MHPA:1,2018-01-03T06:30:00Z,30.6671,-87.9365,1.418,0.87,1111122 
DISL,ioos:station:DISL:MHPA:1,2018-01-03T07:00:00Z,30.6671,-87.9365,1.4,99.0,11144222 
DISL,ioos:station:DISL:MHPA:1,2018-01-03T07:30:00Z,30.6671,-87.9365,1.405,0.89,1111122 
DISL,ioos:station:DISL:MHPA:1,2018-01-03T08:00:00Z,30.6671,-87.9365,1.4,99.0,11144222 
DISL,ioos:station:DISL:MHPA:1,2018-01-03T08:30:00Z,30.6671,-87.9365,1.35,0.89,1111122 
DISL,ioos:station:DISL:MHPA:1,2018-01-03T09:00:00Z,30.6671,-87.9365,1.3,0.9,11111222 
DISL,ioos:station:DISL:MHPA:1,2018-01-03T09:30:00Z,30.6671,-87.9365,1.259,0.94,1111122 
DISL,ioos:station:DISL:MHPA:1,2018-01-03T10:00:00Z,30.6671,-87.9365,1.2,0.9,11111222 
DISL,ioos:station:DISL:MHPA:1,2018-01-03T10:30:00Z,30.6671,-87.9365,1.162,0.96,1111122 
DISL,ioos:station:DISL:MHPA:1,2018-01-03T11:00:00Z,30.6671,-87.9365,1.1,0.9,11111222 
DISL,ioos:station:DISL:MHPA:1,2018-01-03T11:30:00Z,30.6671,-87.9365,1.068,0.88,1111122 
DISL,ioos:station:DISL:MHPA:1,2018-01-03T12:00:00Z,30.6671,-87.9365,1.0,0.7,11111222 
DISL,ioos:station:DISL:MHPA:1,2018-01-03T12:30:00Z,30.6671,-87.9365,0.998,0.57,1111122 
DISL,ioos:station:DISL:MHPA:1,2018-01-03T13:00:00Z,30.6671,-87.9365,1.0,0.7,11111222 
DISL,ioos:station:DISL:MHPA:1,2018-01-03T13:30:00Z,30.6671,-87.9365,0.92,0.69,1111122 
DISL,ioos:station:DISL:MHPA:1,2018-01-03T14:00:00Z,30.6671,-87.9365,0.9,0.8,11111222 
DISL,ioos:station:DISL:MHPA:1,2018-01-03T14:30:00Z,30.6671,-87.9365,0.862,0.78,1111122 
DISL,ioos:station:DISL:MHPA:1,2018-01-03T15:00:00Z,30.6671,-87.9365,0.8,0.7,11111222 
DISL,ioos:station:DISL:MHPA:1,2018-01-03T15:30:00Z,30.6671,-87.9365,0.825,0.72,1111122 
DISL,ioos:station:DISL:MHPA:1,2018-01-03T16:00:00Z,30.6671,-87.9365,0.8,0.7,11111222 
DISL,ioos:station:DISL:MHPA:1,2018-01-03T16:30:00Z,30.6671,-87.9365,0.793,0.64,1111122 
DISL,ioos:station:DISL:MHPA:1,2018-01-03T17:00:00Z,30.6671,-87.9365,0.8,0.6,11111222 
DISL,ioos:station:DISL:MHPA:1,2018-01-03T17:30:00Z,30.6671,-87.9365,0.754,0.6,1111122 
DISL,ioos:station:DISL:MHPA:1,2018-01-03T18:00:00Z,30.6671,-87.9365,0.7,0.6,11111222 
DISL,ioos:station:DISL:MHPA:1,2018-01-03T18:30:00Z,30.6671,-87.9365,0.715,0.59,1111122 
DISL,ioos:station:DISL:MHPA:1,2018-01-03T19:00:00Z,30.6671,-87.9365,0.7,0.6,11111222 
DISL,ioos:station:DISL:MHPA:1,2018-01-03T19:30:00Z,30.6671,-87.9365,0.689,0.62,1111122 
DISL,ioos:station:DISL:MHPA:1,2018-01-03T20:00:00Z,30.6671,-87.9365,0.7,0.6,11111222 
DISL,ioos:station:DISL:MHPA:1,2018-01-03T20:30:00Z,30.6671,-87.9365,0.672,0.6,1111122 
DISL,ioos:station:DISL:MHPA:1,2018-01-03T21:00:00Z,30.6671,-87.9365,0.7,0.6,11111222 
DISL,ioos:station:DISL:MHPA:1,2018-01-03T21:30:00Z,30.6671,-87.9365,0.685,0.61,1111122 
DISL,ioos:station:DISL:MHPA:1,2018-01-03T22:00:00Z,30.6671,-87.9365,0.8,0.6,11111222 
DISL,ioos:station:DISL:MHPA:1,2018-01-03T22:30:00Z,30.6671,-87.9365,0.829,0.64,1111122 
DISL,ioos:station:DISL:MHPA:1,2018-01-03T23:00:00Z,30.6671,-87.9365,0.9,0.7,11111222 
DISL,ioos:station:DISL:MHPA:1,2018-01-03T23:30:00Z,30.6671,-87.9365,0.952,0.67,1111122 
DISL,ioos:station:DISL:MHPA:1,2018-01-04T00:00:00Z,30.6671,-87.9365,1.0,0.7,11111222 
DISL,ioos:station:DISL:MHPA:1,2018-01-04T00:30:00Z,30.6671,-87.9365,1.007,0.66,1111122 
DISL,ioos:station:DISL:MHPA:1,2018-01-04T01:00:00Z,30.6671,-87.9365,1.1,0.7,11111222 
DISL,ioos:station:DISL:MHPA:1,2018-01-04T01:30:00Z,30.6671,-87.9365,1.111,0.65,1111122 
DISL,ioos:station:DISL:MHPA:1,2018-01-04T02:00:00Z,30.6671,-87.9365,1.1,0.7,11111222 
DISL,ioos:station:DISL:MHPA:1,2018-01-04T02:30:00Z,30.6671,-87.9365,1.177,0.67,1111122 
DISL,ioos:station:DISL:MHPA:1,2018-01-04T03:00:00Z,30.6671,-87.9365,1.2,0.7,11111222 
DISL,ioos:station:DISL:MHPA:1,2018-01-04T03:30:00Z,30.6671,-87.9365,1.254,0.68,1111122 
DISL,ioos:station:DISL:MHPA:1,2018-01-04T04:00:00Z,30.6671,-87.9365,1.3,0.6,11111222 
DISL,ioos:station:DISL:MHPA:1,2018-01-04T04:30:00Z,30.6671,-87.9365,1.291,0.59,1111122 
DISL,ioos:station:DISL:MHPA:1,2018-01-04T05:00:00Z,30.6671,-87.9365,1.3,0.6,11111222 
DISL,ioos:station:DISL:MHPA:1,2018-01-04T05:30:00Z,30.6671,-87.9365,1.306,0.52,1111122 
DISL,ioos:station:DISL:MHPA:1,2018-01-04T06:00:00Z,30.6671,-87.9365,1.3,0.5,11111222 
DISL,ioos:station:DISL:MHPA:1,2018-01-04T06:30:00Z,30.6671,-87.9365,1.295,0.6,1111122 
DISL,ioos:station:DISL:MHPA:1,2018-01-04T07:00:00Z,30.6671,-87.9365,1.3,0.6,11111222 
DISL,ioos:station:DISL:MHPA:1,2018-01-04T07:30:00Z,30.6671,-87.9365,1.266,0.55,1111122 
DISL,ioos:station:DISL:MHPA:1,2018-01-04T08:00:00Z,30.6671,-87.9365,1.3,0.7,11111222 
DISL,ioos:station:DISL:MHPA:1,2018-01-04T08:30:00Z,30.6671,-87.9365,1.247,0.72,1111122 
DISL,ioos:station:DISL:MHPA:1,2018-01-04T09:00:00Z,30.6671,-87.9365,1.2,0.7,11111222 
DISL,ioos:station:DISL:MHPA:1,2018-01-04T09:30:00Z,30.6671,-87.9365,1.152,0.74,1111122 
DISL,ioos:station:DISL:MHPA:1,2018-01-04T10:00:00Z,30.6671,-87.9365,1.1,0.7,11111222 
DISL,ioos:station:DISL:MHPA:1,2018-01-04T10:30:00Z,30.6671,-87.9365,1.075,0.81,1111122 
DISL,ioos:station:DISL:MHPA:1,2018-01-04T11:00:00Z,30.6671,-87.9365,1.0,0.9,11111222 
DISL,ioos:station:DISL:MHPA:1,2018-01-04T11:30:00Z,30.6671,-87.9365,0.999,0.84,1111122 
DISL,ioos:station:DISL:MHPA:1,2018-01-04T12:00:00Z,30.6671,-87.9365,1.0,0.8,11111222 
DISL,ioos:station:DISL:MHPA:1,2018-01-04T12:30:00Z,30.6671,-87.9365,0.96,0.64,1111122 
DISL,ioos:station:DISL:MHPA:1,2018-01-04T13:00:00Z,30.6671,-87.9365,1.0,0.6,11111222 
DISL,ioos:station:DISL:MHPA:1,2018-01-04T13:30:00Z,30.6671,-87.9365,0.938,0.56,1111122 
DISL,ioos:station:DISL:MHPA:1,2018-01-04T14:00:00Z,30.6671,-87.9365,0.9,99.0,11144222 
DISL,ioos:station:DISL:MHPA:1,2018-01-04T14:30:00Z,30.6671,-87.9365,0.911,0.59,1111122 
DISL,ioos:station:DISL:MHPA:1,2018-01-04T15:00:00Z,30.6671,-87.9365,0.9,99.0,11144222 
DISL,ioos:station:DISL:MHPA:1,2018-01-04T15:30:00Z,30.6671,-87.9365,0.874,0.61,1111122 
DISL,ioos:station:DISL:MHPA:1,2018-01-04T16:00:00Z,30.6671,-87.9365,0.9,99.0,11144222 
DISL,ioos:station:DISL:MHPA:1,2018-01-04T16:30:00Z,30.6671,-87.9365,0.824,0.59,1111122 
DISL,ioos:station:DISL:MHPA:1,2018-01-04T17:00:00Z,30.6671,-87.9365,0.8,0.6,11111222 
DISL,ioos:station:DISL:MHPA:1,2018-01-04T17:30:00Z,30.6671,-87.9365,0.8,99.0,11144222 
DISL,ioos:station:DISL:MHPA:1,2018-01-04T18:00:00Z,30.6671,-87.9365,0.8,0.6,11111222 
DISL,ioos:station:DISL:MHPA:1,2018-01-04T18:30:00Z,30.6671,-87.9365,0.7,0.6,11111222 
DISL,ioos:station:DISL:MHPA:1,2018-01-04T19:00:00Z,30.6671,-87.9365,0.7,0.6,11111222 
DISL,ioos:station:DISL:MHPA:1,2018-01-04T19:30:00Z,30.6671,-87.9365,0.7,0.6,11111222 
DISL,ioos:station:DISL:MHPA:1,2018-01-04T20:00:00Z,30.6671,-87.9365,0.7,0.6,11111222 
DISL,ioos:station:DISL:MHPA:1,2018-01-04T20:30:00Z,30.6671,-87.9365,0.7,0.6,11111222 
DISL,ioos:station:DISL:MHPA:1,2018-01-04T21:00:00Z,30.6671,-87.9365,0.7,0.6,11111222 
DISL,ioos:station:DISL:MHPA:1,2018-01-04T21:30:00Z,30.6671,-87.9365,0.8,0.6,11111222 
DISL,ioos:station:DISL:MHPA:1,2018-01-04T22:00:00Z,30.6671,-87.9365,0.8,0.6,11111222 
DISL,ioos:station:DISL:MHPA:1,2018-01-04T22:30:00Z,30.6671,-87.9365,0.9,0.7,11111222 
DISL,ioos:station:DISL:MHPA:1,2018-01-04T23:00:00Z,30.6671,-87.9365,0.9,0.7,11111222 
DISL,ioos:station:DISL:MHPA:1,2018-01-04T23:30:00Z,30.6671,-87.9365,0.9,0.7,11111222 
DISL,ioos:station:DISL:MHPA:1,2018-01-05T00:00:00Z,30.6671,-87.9365,0.9,0.7,11111222 
DISL,ioos:station:DISL:MHPA:1,2018-01-05T00:30:00Z,30.6671,-87.9365,0.9,0.8,11111222 
DISL,ioos:station:DISL:MHPA:1,2018-01-05T01:00:00Z,30.6671,-87.9365,1.0,0.8,11111222 
DISL,ioos:station:DISL:MHPA:1,2018-01-05T01:30:00Z,30.6671,-87.9365,1.0,0.8,11111222 
DISL,ioos:station:DISL:MHPA:1,2018-01-05T02:00:00Z,30.6671,-87.9365,1.0,1.1,11111222 
DISL,ioos:station:DISL:MHPA:1,2018-01-05T02:30:00Z,30.6671,-87.9365,1.1,1.0,11111222 
DISL,ioos:station:DISL:MHPA:1,2018-01-05T03:00:00Z,30.6671,-87.9365,1.1,0.9,11111222 
DISL,ioos:station:DISL:MHPA:1,2018-01-05T03:30:00Z,30.6671,-87.9365,1.1,0.9,11111222 
DISL,ioos:station:DISL:MHPA:1,2018-01-05T04:00:00Z,30.6671,-87.9365,1.2,1.1,11111222 
DISL,ioos:station:DISL:MHPA:1,2018-01-05T04:30:00Z,30.6671,-87.9365,1.2,1.1,11111222 
DISL,ioos:station:DISL:MHPA:1,2018-01-05T05:00:00Z,30.6671,-87.9365,1.2,1.0,11111222 
DISL,ioos:station:DISL:MHPA:1,2018-01-05T05:30:00Z,30.6671,-87.9365,1.2,1.1,11111222 
DISL,ioos:station:DISL:MHPA:1,2018-01-05T06:00:00Z,30.6671,-87.9365,1.2,1.1,11111222 
DISL,ioos:station:DISL:MHPA:1,2018-01-05T06:30:00Z,30.6671,-87.9365,1.2,1.0,11111222 
DISL,ioos:station:DISL:MHPA:1,2018-01-05T07:00:00Z,30.6671,-87.9365,1.3,1.0,11111222 
DISL,ioos:station:DISL:MHPA:1,2018-01-05T07:30:00Z,30.6671,-87.9365,1.3,1.0,11111222 
DISL,ioos:station:DISL:MHPA:1,2018-01-05T08:00:00Z,30.6671,-87.9365,1.3,1.0,11111222 
DISL,ioos:station:DISL:MHPA:1,2018-01-05T08:30:00Z,30.6671,-87.9365,1.3,1.0,11111222 
DISL,ioos:station:DISL:MHPA:1,2018-01-05T09:00:00Z,30.6671,-87.9365,1.3,0.9,11111222 
DISL,ioos:station:DISL:MHPA:1,2018-01-05T09:30:00Z,30.6671,-87.9365,1.3,0.9,11111222 
DISL,ioos:station:DISL:MHPA:1,2018-01-05T10:00:00Z,30.6671,-87.9365,1.3,0.9,11111222 
DISL,ioos:station:DISL:MHPA:1,2018-01-05T10:30:00Z,30.6671,-87.9365,1.2,0.9,11111222 
DISL,ioos:station:DISL:MHPA:1,2018-01-05T11:00:00Z,30.6671,-87.9365,1.2,0.9,11111222 
DISL,ioos:station:DISL:MHPA:1,2018-01-05T11:30:00Z,30.6671,-87.9365,1.2,0.9,11111222 
DISL,ioos:station:DISL:MHPA:1,2018-01-05T12:00:00Z,30.6671,-87.9365,1.1,0.9,11111222 
DISL,ioos:station:DISL:MHPA:1,2018-01-05T12:30:00Z,30.6671,-87.9365,1.1,1.0,11111222 
DISL,ioos:station:DISL:MHPA:1,2018-01-05T13:00:00Z,30.6671,-87.9365,1.0,1.0,11111222 
DISL,ioos:station:DISL:MHPA:1,2018-01-05T13:30:00Z,30.6671,-87.9365,1.0,1.0,11111222 
DISL,ioos:station:DISL:MHPA:1,2018-01-05T14:00:00Z,30.6671,-87.9365,1.0,1.1,11111222 
DISL,ioos:station:DISL:MHPA:1,2018-01-05T14:30:00Z,30.6671,-87.9365,0.9,1.1,11111222 
DISL,ioos:station:DISL:MHPA:1,2018-01-05T15:00:00Z,30.6671,-87.9365,0.9,1.1,11111222 
DISL,ioos:station:DISL:MHPA:1,2018-01-05T15:30:00Z,30.6671,-87.9365,0.9,1.1,11111222 
DISL,ioos:station:DISL:MHPA:1,2018-01-05T16:00:00Z,30.6671,-87.9365,0.9,1.1,11111222 
DISL,ioos:station:DISL:MHPA:1,2018-01-05T16:30:00Z,30.6671,-87.9365,0.9,1.0,11111222 
DISL,ioos:station:DISL:MHPA:1,2018-01-05T17:00:00Z,30.6671,-87.9365,0.9,1.1,11111222 
DISL,ioos:station:DISL:MHPA:1,2018-01-05T17:30:00Z,30.6671,-87.9365,0.9,1.1,11111222 
DISL,ioos:station:DISL:MHPA:1,2018-01-05T18:00:00Z,30.6671,-87.9365,0.9,1.1,11111222 
DISL,ioos:station:DISL:MHPA:1,2018-01-05T18:30:00Z,30.6671,-87.9365,0.8,1.1,11111222 
DISL,ioos:station:DISL:MHPA:1,2018-01-05T19:00:00Z,30.6671,-87.9365,0.8,1.0,11111222 
DISL,ioos:station:DISL:MHPA:1,2018-01-05T19:30:00Z,30.6671,-87.9365,0.8,1.0,11111222 
DISL,ioos:station:DISL:MHPA:1,2018-01-05T20:00:00Z,30.6671,-87.9365,0.8,1.0,11111222 
DISL,ioos:station:DISL:MHPA:1,2018-01-05T20:30:00Z,30.6671,-87.9365,0.8,1.0,11111222 
DISL,ioos:station:DISL:MHPA:1,2018-01-05T21:00:00Z,30.6671,-87.9365,0.9,1.0,11111222 
DISL,ioos:station:DISL:MHPA:1,2018-01-05T21:30:00Z,30.6671,-87.9365,0.9,0.9,11111222 
DISL,ioos:station:DISL:MHPA:1,2018-01-05T22:00:00Z,30.6671,-87.9365,1.0,0.9,11111222 
DISL,ioos:station:DISL:MHPA:1,2018-01-05T22:30:00Z,30.6671,-87.9365,1.0,0.9,11111222 
DISL,ioos:station:DISL:MHPA:1,2018-01-05T23:00:00Z,30.6671,-87.9365,1.0,0.9,11111222 
DISL,ioos:station:DISL:MHPA:1,2018-01-05T23:30:00Z,30.6671,-87.9365,1.1,0.9,11111222 
DISL,ioos:station:DISL:MHPA:1,2018-01-06T00:00:00Z,30.6671,-87.9365,1.1,0.9,11111222 
DISL,ioos:station:DISL:MHPA:1,2018-01-06T00:30:00Z,30.6671,-87.9365,1.1,0.8,11111222 
DISL,ioos:station:DISL:MHPA:1,2018-01-06T01:00:00Z,30.6671,-87.9365,1.2,0.8,11111222 
DISL,ioos:station:DISL:MHPA:1,2018-01-06T01:30:00Z,30.6671,-87.9365,1.2,0.8,11111222 
DISL,ioos:station:DISL:MHPA:1,2018-01-06T02:00:00Z,30.6671,-87.9365,1.2,0.8,11111222 
DISL,ioos:station:DISL:MHPA:1,2018-01-06T02:30:00Z,30.6671,-87.9365,1.2,0.9,11111222 
DISL,ioos:station:DISL:MHPA:1,2018-01-06T03:00:00Z,30.6671,-87.9365,1.2,0.9,11111222 
DISL,ioos:station:DISL:MHPA:1,2018-01-06T03:30:00Z,30.6671,-87.9365,1.2,1.0,11111222 
DISL,ioos:station:DISL:MHPA:1,2018-01-06T04:00:00Z,30.6671,-87.9365,1.3,1.0,11111222 
DISL,ioos:station:DISL:MHPA:1,2018-01-06T04:30:00Z,30.6671,-87.9365,1.3,1.0,11111222 
DISL,ioos:station:DISL:MHPA:1,2018-01-06T05:00:00Z,30.6671,-87.9365,1.3,1.0,11111222 
DISL,ioos:station:DISL:MHPA:1,2018-01-06T05:30:00Z,30.6671,-87.9365,1.3,1.0,11111222 
DISL,ioos:station:DISL:MHPA:1,2018-01-06T06:00:00Z,30.6671,-87.9365,1.4,1.0,11111222 
DISL,ioos:station:DISL:MHPA:1,2018-01-06T06:30:00Z,30.6671,-87.9365,1.4,0.9,11111222 
DISL,ioos:station:DISL:MHPA:1,2018-01-06T07:00:00Z,30.6671,-87.9365,1.4,1.0,11111222 
DISL,ioos:station:DISL:MHPA:1,2018-01-06T07:30:00Z,30.6671,-87.9365,1.4,1.1,11111222 
DISL,ioos:station:DISL:MHPA:1,2018-01-06T08:00:00Z,30.6671,-87.9365,1.4,1.1,11111222 
DISL,ioos:station:DISL:MHPA:1,2018-01-06T08:30:00Z,30.6671,-87.9365,1.4,1.1,11111222 
DISL,ioos:station:DISL:MHPA:1,2018-01-06T09:00:00Z,30.6671,-87.9365,1.3,1.1,11111222 
DISL,ioos:station:DISL:MHPA:1,2018-01-06T09:30:00Z,30.6671,-87.9365,1.3,1.1,11111222 
DISL,ioos:station:DISL:MHPA:1,2018-01-06T10:00:00Z,30.6671,-87.9365,1.3,1.1,11111222 
DISL,ioos:station:DISL:MHPA:1,2018-01-06T10:30:00Z,30.6671,-87.9365,1.2,1.2,11111222 
DISL,ioos:station:DISL:MHPA:1,2018-01-06T11:00:00Z,30.6671,-87.9365,1.2,1.2,11111222 
DISL,ioos:station:DISL:MHPA:1,2018-01-06T11:30:00Z,30.6671,-87.9365,1.2,1.4,11111222 
DISL,ioos:station:DISL:MHPA:1,2018-01-06T12:00:00Z,30.6671,-87.9365,1.1,1.4,11111222 
DISL,ioos:station:DISL:MHPA:1,2018-01-06T12:30:00Z,30.6671,-87.9365,1.1,1.4,11111222 
DISL,ioos:station:DISL:MHPA:1,2018-01-06T13:00:00Z,30.6671,-87.9365,1.1,1.4,11111222 
DISL,ioos:station:DISL:MHPA:1,2018-01-06T13:30:00Z,30.6671,-87.9365,1.1,1.4,11111222 
DISL,ioos:station:DISL:MHPA:1,2018-01-06T14:00:00Z,30.6671,-87.9365,1.0,1.4,11111222 
DISL,ioos:station:DISL:MHPA:1,2018-01-06T14:30:00Z,30.6671,-87.9365,1.0,1.4,11111222 
DISL,ioos:station:DISL:MHPA:1,2018-01-06T15:00:00Z,30.6671,-87.9365,1.0,1.3,11111222 
DISL,ioos:station:DISL:MHPA:1,2018-01-06T15:30:00Z,30.6671,-87.9365,1.0,1.4,11111222 
DISL,ioos:station:DISL:MHPA:1,2018-01-06T16:00:00Z,30.6671,-87.9365,0.9,1.4,11111222 
DISL,ioos:station:DISL:MHPA:1,2018-01-06T16:30:00Z,30.6671,-87.9365,0.9,1.5,11111222 
DISL,ioos:station:DISL:MHPA:1,2018-01-06T17:00:00Z,30.6671,-87.9365,0.9,1.5,11111222 
DISL,ioos:station:DISL:MHPA:1,2018-01-06T17:30:00Z,30.6671,-87.9365,0.9,1.5,11111222 